Location: ???????
(55.8930°N, 38.0586°E)
Time: 22:59:25
(UTC+00:00)

S3M - Pass Details

Date: 14 April 2024
Orbit: 949 x 1003 km, 83.0° (Epoch: 23 May)

Event Time Altitude Azimuth Distance (km) Brightness Sun altitude
Rises 01:26:51 0° 348° (NNW) 3,640 7.3 -8.2°
Reaches altitude 10° 01:29:20 10° 349° (N) 2,693 6.6 -7.9°
Maximum altitude 01:35:31 85° 79° (E) 971 4.1 -7.1°
Drops below altitude 10° 01:41:43 10° 168° (SSE) 2,703 6.2 -6.3°
Sets 01:44:13 0° 169° (S) 3,654 6.8 -6.0°
